VCV57 SVCU-SVMI

Flight info

Callsign VCV57
Flight time 0h 41m
Altitude 32000
Route TOSIP UW52 CBC NETSI1
Aircraft E190/M-SDE3GILORVW/S

Departure

Time 2026-05-05 00:39
Airport Antonio José de Sucre Airport (SVCU)

Arrival

Time 2026-05-05 01:21
Airport Maiquetía Simón Bolívar International Airport (SVMI)
Time Latitude Longitude Altitude Speed Heading
2026-05-05 00:21 10.45211 -64.13323 8 ft 0 kts 332°
2026-05-05 00:33 10.45199 -64.13317 11 ft 4 kts 317°
2026-05-05 00:33 10.45188 -64.13301 15 ft 4 kts 233°
2026-05-05 00:33 10.45195 -64.13295 12 ft 1 kts 184°
2026-05-05 00:33 10.45198 -64.13295 12 ft 0 kts 184°
2026-05-05 00:35 10.45196 -64.13295 12 ft 2 kts 184°
2026-05-05 00:35 10.45164 -64.13291 12 ft 8 kts 165°
2026-05-05 00:35 10.45101 -64.13263 10 ft 11 kts 152°
2026-05-05 00:36 10.45024 -64.13222 12 ft 14 kts 152°
2026-05-05 00:36 10.44934 -64.13242 11 ft 16 kts 236°
2026-05-05 00:36 10.44877 -64.13352 11 ft 19 kts 242°
2026-05-05 00:36 10.44811 -64.13481 13 ft 22 kts 243°
2026-05-05 00:37 10.44732 -64.13632 14 ft 26 kts 239°
2026-05-05 00:37 10.44645 -64.13801 10 ft 28 kts 245°
2026-05-05 00:37 10.44551 -64.13984 10 ft 30 kts 241°
2026-05-05 00:37 10.44454 -64.14172 2 ft 26 kts 243°
2026-05-05 00:38 10.44380 -64.14317 8 ft 22 kts 242°
2026-05-05 00:38 10.44346 -64.14433 8 ft 16 kts 285°
2026-05-05 00:38 10.44308 -64.14488 9 ft 10 kts 163°
2026-05-05 00:38 10.44320 -64.14431 10 ft 16 kts 62°
2026-05-05 00:39 10.44468 -64.14145 3 ft 80 kts 62°
2026-05-05 00:39 10.44826 -64.13449 14 ft 140 kts 63°
2026-05-05 00:39 10.45349 -64.12451 284 ft 176 kts 62°
2026-05-05 00:39 10.46005 -64.11312 809 ft 195 kts 52°
2026-05-05 00:40 10.47198 -64.10621 1075 ft 219 kts 10°
2026-05-05 00:40 10.48732 -64.10754 2042 ft 226 kts 351°
2026-05-05 00:40 10.50243 -64.11384 3045 ft 246 kts 330°
2026-05-05 00:40 10.51526 -64.12765 3482 ft 289 kts 293°
2026-05-05 00:41 10.51954 -64.14723 4775 ft 289 kts 275°
2026-05-05 00:41 10.52170 -64.16764 6054 ft 293 kts 276°
2026-05-05 00:41 10.52465 -64.18829 7211 ft 297 kts 279°
2026-05-05 00:41 10.52801 -64.20916 8314 ft 301 kts 279°
2026-05-05 00:42 10.53145 -64.23040 9404 ft 308 kts 279°
2026-05-05 00:42 10.53489 -64.25223 10373 ft 322 kts 279°
2026-05-05 00:42 10.53851 -64.27555 11019 ft 342 kts 278°
2026-05-05 00:42 10.54164 -64.30011 11770 ft 358 kts 277°
2026-05-05 00:43 10.54448 -64.32544 12516 ft 372 kts 276°
2026-05-05 00:43 10.54714 -64.35197 13400 ft 382 kts 276°
2026-05-05 00:43 10.54965 -64.37907 14290 ft 388 kts 275°
2026-05-05 00:43 10.55199 -64.40656 15232 ft 392 kts 275°
2026-05-05 00:44 10.55413 -64.43437 16204 ft 396 kts 275°
2026-05-05 00:44 10.55602 -64.46251 17121 ft 401 kts 274°
2026-05-05 00:44 10.55759 -64.49099 17984 ft 406 kts 274°
2026-05-05 00:44 10.55882 -64.51982 18770 ft 409 kts 273°
2026-05-05 00:45 10.55973 -64.54873 19535 ft 411 kts 272°
2026-05-05 00:45 10.56025 -64.57783 20274 ft 412 kts 272°
2026-05-05 00:45 10.56029 -64.60670 20993 ft 414 kts 271°
2026-05-05 00:45 10.56009 -64.63616 21734 ft 415 kts 272°
2026-05-05 00:46 10.56057 -64.66546 22477 ft 415 kts 273°
2026-05-05 00:46 10.56098 -64.69482 23186 ft 416 kts 273°
2026-05-05 00:46 10.56137 -64.72429 23794 ft 418 kts 272°
2026-05-05 00:46 10.56173 -64.75399 24280 ft 421 kts 272°
2026-05-05 00:47 10.56208 -64.78383 24753 ft 424 kts 272°
2026-05-05 00:47 10.56243 -64.81393 25193 ft 427 kts 272°
2026-05-05 00:47 10.56276 -64.84415 25634 ft 429 kts 272°
2026-05-05 00:47 10.56310 -64.87458 26065 ft 432 kts 272°
2026-05-05 00:48 10.56343 -64.90513 26492 ft 434 kts 272°
2026-05-05 00:48 10.56376 -64.93590 26897 ft 437 kts 272°
2026-05-05 00:48 10.56408 -64.96683 27306 ft 439 kts 272°
2026-05-05 00:48 10.56440 -64.99797 27707 ft 441 kts 272°
2026-05-05 00:49 10.56473 -65.02889 28085 ft 444 kts 272°
2026-05-05 00:49 10.56505 -65.06039 28461 ft 446 kts 272°
2026-05-05 00:49 10.56537 -65.09199 28815 ft 449 kts 272°
2026-05-05 00:49 10.56569 -65.12381 29251 ft 449 kts 272°
2026-05-05 00:50 10.56600 -65.15548 29752 ft 447 kts 272°
2026-05-05 00:50 10.56631 -65.18700 30208 ft 445 kts 272°
2026-05-05 00:50 10.56661 -65.21843 30607 ft 444 kts 272°
2026-05-05 00:50 10.56688 -65.24974 30980 ft 443 kts 272°
2026-05-05 00:51 10.56716 -65.28099 31346 ft 442 kts 272°
2026-05-05 00:51 10.56744 -65.31219 31722 ft 440 kts 272°
2026-05-05 00:51 10.56772 -65.34316 32049 ft 435 kts 272°
2026-05-05 00:52 10.56827 -65.40393 31960 ft 425 kts 272°
2026-05-05 00:52 10.56871 -65.46383 31962 ft 423 kts 271°
2026-05-05 00:53 10.56896 -65.52355 31961 ft 423 kts 272°
2026-05-05 00:53 10.56939 -65.58294 31973 ft 422 kts 272°
2026-05-05 00:54 10.56990 -65.64286 31974 ft 423 kts 272°
2026-05-05 00:54 10.57043 -65.70237 31976 ft 422 kts 272°
2026-05-05 00:55 10.57098 -65.76214 31975 ft 423 kts 272°
2026-05-05 00:55 10.57153 -65.82193 31980 ft 423 kts 272°
2026-05-05 00:56 10.57208 -65.88175 31983 ft 423 kts 272°
2026-05-05 00:56 10.57236 -65.91185 31598 ft 428 kts 272°
2026-05-05 00:56 10.57262 -65.94157 31376 ft 426 kts 272°
2026-05-05 00:56 10.57289 -65.97192 30747 ft 431 kts 272°
2026-05-05 00:57 10.57316 -66.00241 30180 ft 431 kts 272°
2026-05-05 00:57 10.57444 -66.03277 29540 ft 428 kts 281°
2026-05-05 00:57 10.58351 -66.06127 29040 ft 423 kts 298°
2026-05-05 00:57 10.59939 -66.08641 28445 ft 423 kts 307°
2026-05-05 00:58 10.61684 -66.11034 27866 ft 420 kts 307°
2026-05-05 00:58 10.63402 -66.13416 27316 ft 416 kts 307°
2026-05-05 00:58 10.65080 -66.15792 26768 ft 412 kts 307°
2026-05-05 00:58 10.66742 -66.18152 26229 ft 407 kts 307°
2026-05-05 00:59 10.68388 -66.20483 25689 ft 403 kts 307°
2026-05-05 00:59 10.70001 -66.22761 25168 ft 400 kts 307°
2026-05-05 00:59 10.71627 -66.25054 24636 ft 397 kts 307°
2026-05-05 00:59 10.73236 -66.27320 24113 ft 393 kts 307°
2026-05-05 01:00 10.74834 -66.29569 23579 ft 390 kts 307°
2026-05-05 01:00 10.76420 -66.31801 23048 ft 386 kts 307°
2026-05-05 01:00 10.77994 -66.34014 22550 ft 386 kts 308°
2026-05-05 01:00 10.79568 -66.36228 22046 ft 387 kts 308°
2026-05-05 01:01 10.80902 -66.38607 21472 ft 392 kts 290°
2026-05-05 01:01 10.81260 -66.41317 21027 ft 396 kts 267°
2026-05-05 01:01 10.80799 -66.44092 20516 ft 399 kts 259°
2026-05-05 01:01 10.80237 -66.46859 19957 ft 399 kts 261°
2026-05-05 01:02 10.79757 -66.49636 19413 ft 398 kts 261°
2026-05-05 01:02 10.79275 -66.52413 18892 ft 397 kts 260°
2026-05-05 01:02 10.78796 -66.55186 18366 ft 396 kts 260°
2026-05-05 01:02 10.78317 -66.57941 17801 ft 395 kts 260°
2026-05-05 01:03 10.77850 -66.60641 17318 ft 390 kts 259°
2026-05-05 01:03 10.77381 -66.63349 16800 ft 387 kts 259°
2026-05-05 01:03 10.76916 -66.66037 16295 ft 384 kts 259°
2026-05-05 01:03 10.76452 -66.68705 15780 ft 381 kts 259°
2026-05-05 01:04 10.75995 -66.71346 15274 ft 377 kts 259°
2026-05-05 01:04 10.75241 -66.75689 14439 ft 370 kts 259°
2026-05-05 01:04 10.74798 -66.78247 13946 ft 365 kts 259°
2026-05-05 01:05 10.74219 -66.81578 13305 ft 357 kts 259°
2026-05-05 01:05 10.73792 -66.84038 12850 ft 350 kts 259°
2026-05-05 01:05 10.73372 -66.86455 12385 ft 344 kts 259°
2026-05-05 01:05 10.72958 -66.88831 11935 ft 339 kts 259°
2026-05-05 01:06 10.72583 -66.91181 11481 ft 335 kts 264°
2026-05-05 01:06 10.72531 -66.92746 11197 ft 332 kts 270°
2026-05-05 01:06 10.72618 -66.95082 10750 ft 329 kts 271°
2026-05-05 01:06 10.72688 -66.97391 10317 ft 325 kts 270°
2026-05-05 01:07 10.72722 -66.99682 9886 ft 322 kts 269°
2026-05-05 01:07 10.72733 -67.01949 9448 ft 318 kts 269°
2026-05-05 01:07 10.72735 -67.04187 9050 ft 313 kts 269°
2026-05-05 01:07 10.72729 -67.06395 8623 ft 310 kts 268°
2026-05-05 01:08 10.72719 -67.08569 8219 ft 306 kts 268°
2026-05-05 01:08 10.72712 -67.10720 7819 ft 303 kts 268°
2026-05-05 01:08 10.72708 -67.12850 7417 ft 300 kts 268°
2026-05-05 01:08 10.72703 -67.14961 7025 ft 297 kts 267°
2026-05-05 01:09 10.72701 -67.17019 6645 ft 294 kts 267°
2026-05-05 01:09 10.72695 -67.19090 6244 ft 291 kts 267°
2026-05-05 01:09 10.72685 -67.21126 5943 ft 285 kts 267°
2026-05-05 01:09 10.72692 -67.23137 5638 ft 283 kts 268°
2026-05-05 01:10 10.72707 -67.25132 5324 ft 281 kts 268°
2026-05-05 01:10 10.72719 -67.27102 5096 ft 279 kts 268°
2026-05-05 01:10 10.72728 -67.29063 4846 ft 274 kts 268°
2026-05-05 01:10 10.72740 -67.30986 4572 ft 270 kts 268°
2026-05-05 01:11 10.72749 -67.32875 4313 ft 265 kts 269°
2026-05-05 01:11 10.72761 -67.34728 4155 ft 257 kts 269°
2026-05-05 01:11 10.72686 -67.36494 4118 ft 244 kts 257°
2026-05-05 01:11 10.72004 -67.38018 4054 ft 235 kts 226°
2026-05-05 01:12 10.70727 -67.38982 4047 ft 228 kts 199°
2026-05-05 01:12 10.69198 -67.39337 4044 ft 225 kts 185°
2026-05-05 01:12 10.67643 -67.39526 4052 ft 225 kts 185°
2026-05-05 01:12 10.66081 -67.39720 4012 ft 225 kts 182°
2026-05-05 01:13 10.64589 -67.39473 4031 ft 220 kts 153°
2026-05-05 01:13 10.63441 -67.38459 4027 ft 220 kts 121°
2026-05-05 01:13 10.62963 -67.36990 4059 ft 222 kts 98°
2026-05-05 01:13 10.62837 -67.35421 4069 ft 224 kts 95°
2026-05-05 01:14 10.62741 -67.33837 4021 ft 224 kts 94°
2026-05-05 01:14 10.62638 -67.32268 4022 ft 222 kts 96°
2026-05-05 01:14 10.62247 -67.30773 4035 ft 219 kts 116°
2026-05-05 01:14 10.61511 -67.29438 4045 ft 217 kts 121°
2026-05-05 01:15 10.60757 -67.28116 4118 ft 213 kts 118°
2026-05-05 01:15 10.60108 -67.26813 4052 ft 202 kts 116°
2026-05-05 01:15 10.59572 -67.25532 3843 ft 195 kts 99°
2026-05-05 01:15 10.59614 -67.24191 3713 ft 185 kts 84°
2026-05-05 01:16 10.59713 -67.22911 3690 ft 181 kts 91°
2026-05-05 01:16 10.59707 -67.21622 3686 ft 184 kts 90°
2026-05-05 01:16 10.59749 -67.20314 3610 ft 186 kts 88°
2026-05-05 01:16 10.59808 -67.18992 3446 ft 187 kts 89°
2026-05-05 01:17 10.59840 -67.17679 3243 ft 185 kts 89°
2026-05-05 01:17 10.59883 -67.16382 3023 ft 182 kts 88°
2026-05-05 01:17 10.59925 -67.15105 2790 ft 180 kts 89°
2026-05-05 01:17 10.59967 -67.13843 2574 ft 179 kts 89°
2026-05-05 01:18 10.60008 -67.12582 2372 ft 177 kts 89°
2026-05-05 01:18 10.60063 -67.11341 2148 ft 173 kts 88°
2026-05-05 01:18 10.60097 -67.10151 1914 ft 164 kts 89°
2026-05-05 01:18 10.60127 -67.09025 1692 ft 154 kts 89°
2026-05-05 01:19 10.60158 -67.07987 1487 ft 144 kts 89°
2026-05-05 01:19 10.60189 -67.06991 1327 ft 137 kts 88°
2026-05-05 01:19 10.60234 -67.06048 1147 ft 131 kts 88°
2026-05-05 01:19 10.60261 -67.05137 965 ft 127 kts 89°
2026-05-05 01:20 10.60281 -67.04235 808 ft 128 kts 88°
2026-05-05 01:20 10.60329 -67.03336 697 ft 126 kts 87°
2026-05-05 01:20 10.60351 -67.02469 477 ft 121 kts 86°
2026-05-05 01:20 10.60372 -67.01653 364 ft 116 kts 85°
2026-05-05 01:21 10.60393 -67.00850 239 ft 105 kts 86°
2026-05-05 01:21 10.60411 -67.00252 226 ft 59 kts 87°
2026-05-05 01:21 10.60425 -66.99861 217 ft 43 kts 86°
2026-05-05 01:21 10.60385 -66.99680 210 ft 21 kts 158°
2026-05-05 01:22 10.60227 -66.99670 203 ft 18 kts 178°
2026-05-05 01:22 10.60142 -66.99726 209 ft 15 kts 258°
2026-05-05 01:22 10.60136 -66.99824 221 ft 13 kts 268°
2026-05-05 01:22 10.60111 -66.99905 220 ft 12 kts 220°
2026-05-05 01:23 10.60028 -66.99914 217 ft 13 kts 178°
2026-05-05 01:23 10.59936 -66.99916 225 ft 12 kts 200°
2026-05-05 01:23 10.59912 -66.99999 219 ft 13 kts 269°
2026-05-05 01:23 10.59902 -67.00070 220 ft 8 kts 228°
2026-05-05 01:24 10.59858 -67.00078 220 ft 4 kts 180°
2026-05-05 01:24 10.59841 -67.00077 220 ft 2 kts 179°
2026-05-05 01:24 10.59833 -67.00077 220 ft 0 kts 179°